Regional Weather Roundup
Issued by NWS Northern Indiana

Home | Current Version | Previous Version | Text Only | Print | Product List | Glossary On
Versions: 1 2 3 4 5 6 7 8 9 10 11 12 13 14 15 16 17 18 19 20 21 22 23 24 25 26 27 28 29 30 31 32 33 34 35 36 37 38 39 40 41 42 43 44 45 46 47 48 49 50
000
ASUS43 KIWX 170101
RWRIWX

KIWX WEATHER ROUNDUP
NATIONAL WEATHER SERVICE NORTHERN INDIANA
900 PM EDT MON OCT 16 2017

NOTE: "FAIR" INDICATES FEW OR NO CLOUDS BELOW 12,000 FEET WITH NO
SIGNIFICANT WEATHER AND/OR OBSTRUCTIONS TO VISIBILITY.

* THESE STATIONS ARE NOT UNDER NWS QUALITY CONTROL. THEY ALSO MAY NOT
  REPORT WEATHER SUCH AS PRECIPITATION OR FOG.

INZ001>027-170200-
NORTHERN INDIANA

CITY           SKY/WX    TMP DP  RH WIND       PRES   REMARKS
GARY*          CLEAR     46  43  87 VRB3      30.24S
MICHIGAN CITY* CLEAR     45  45 100 CALM      30.24S
KNOX*          CLEAR     45  41  87 S3        30.24S
SOUTH BEND     CLEAR     48  41  76 CALM      30.25S
ELKHART*       CLEAR     46  41  81 CALM      30.25S
GOSHEN         CLEAR     46  38  73 SE5       30.25S
MONTICELLO*    CLEAR     51  37  58 S5        30.26R
WARSAW*        CLEAR     45  41  87 CALM      30.26S
AUBURN*        CLEAR     43  39  87 CALM      30.28S
FORT WAYNE     CLEAR     46  39  76 S6        30.28R
PERU/GRISSOM   CLEAR     47  38  71 S5        30.26S

$$
INZ028>050-170200-
CENTRAL INDIANA

CITY           SKY/WX    TMP DP  RH WIND       PRES   REMARKS
LAFAYETTE      CLEAR     49  41  74 CALM      30.27R
KOKOMO*        CLEAR     47  42  83 S3        30.28S
MUNCIE*        CLEAR     45  41  86 CALM      30.29R
INDIANAPOLIS   CLEAR     53  37  54 SW6       30.30S

$$
MIZ043>046-050>051-056>058-064>065-071>073-077>080-170200-
SOUTHWEST LOWER MICHIGAN

CITY           SKY/WX    TMP DP  RH WIND       PRES   REMARKS
BATTLE CREEK   CLEAR     45  40  82 S3        30.25S
BENTON HARBOR  CLEAR     46  42  86 CALM      30.23S
COLDWATER*     CLEAR     43  43  99 CALM      30.25F
HILLSDALE*     CLEAR     41  39  93 CALM      30.25S
HOLLAND        CLEAR     45  41  86 S6        30.22F
GRAND RAPIDS   PTCLDY    46  40  79 S7        30.22F
STURGIS*       CLEAR     43  40  88 CALM      30.24F
THREE RIVERS*  FAIR      46  43  87 CALM      30.25S

$$
OHZ001>008-015>018-024>025-170200-
NORTHWEST OHIO

CITY           SKY/WX    TMP DP  RH WIND       PRES   REMARKS
DEFIANCE       CLEAR     45  40  82 CALM      30.28R
FINDLAY        PTCLDY    46  39  76 S3        30.28R
TOLEDO EXPRESS CLEAR     45  44  97 CALM      30.27S
TOLEDO METCALF CLEAR     48  40  73 S5        30.28S
LIMA           MOCLDY    48  42  80 S7        30.28R

$$
AND FOR LAKE MICHIGAN COASTAL AND OPEN LAKE BUOY OBSERVATIONS

STATION/POSITION TEMP    WIND        PRES    VSBY  WAVE
                 AIR SEA DIR/SP/G                  HT/PER
                 (F)     (DEG/KT/KT) (MB)    (MI)  (FT/S)
CALUMET HARBOR    57     210/  3/  5 1022.9R
MICHIGAN CITY     57     180/  8/  9   N/A
BURNS HARBOR      58     200/  6/  8 1024.0S
SAINT JOSEPH      53     140/  2/  3 1024.4
SOUTH LAKE BUOY   60 62  260/ 12/ 14 1022.9          1/ 3
4 MI NW BRIDGMAN  57 58  180/  8/ 10 1023.9S         2/ 5
MICHIGAN CITY     58 58  200/  4/  6   N/A           1/ 6

$$
&&




USA.gov is the U.S. government's official web portal to all federal, state and local government web resources and services.